TimeEDT,TemperatureF,Dew PointF,Humidity,Sea Level PressureIn,VisibilityMPH,Wind Direction,Wind SpeedMPH,Gust SpeedMPH,PrecipitationIn,Events,Conditions,WindDirDegrees,DateUTC
12:54 AM,57.9,55.0,90,29.83,-9999.0,North,-9999.0,-,N/A,,Unknown,0,2012-10-06 04:54:00
1:54 AM,57.9,55.9,93,29.81,-9999.0,North,-9999.0,-,N/A,,Unknown,0,2012-10-06 05:54:00
2:54 AM,57.9,55.9,93,29.78,-9999.0,North,-9999.0,-,N/A,,Unknown,0,2012-10-06 06:54:00
3:54 AM,59.0,55.9,90,29.75,-9999.0,North,-9999.0,-,N/A,,Unknown,0,2012-10-06 07:54:00
4:54 AM,57.9,55.9,93,29.74,-9999.0,North,-9999.0,-,N/A,,Unknown,0,2012-10-06 08:54:00
5:54 AM,61.0,57.0,87,29.73,-9999.0,North,-9999.0,-,N/A,,Unknown,0,2012-10-06 09:54:00
6:54 AM,62.1,57.0,84,29.71,-9999.0,North,-9999.0,-,N/A,,Unknown,0,2012-10-06 10:54:00
7:54 AM,62.1,57.9,86,29.71,-9999.0,North,-9999.0,-,N/A,,Unknown,0,2012-10-06 11:54:00
8:54 AM,63.0,57.0,81,29.70,-9999.0,North,-9999.0,-,N/A,,Unknown,0,2012-10-06 12:54:00
9:54 AM,64.0,57.0,78,29.68,-9999.0,North,-9999.0,-,N/A,,Unknown,0,2012-10-06 13:54:00
10:54 AM,64.9,55.9,73,29.65,-9999.0,North,-9999.0,-,N/A,,Unknown,0,2012-10-06 14:54:00
11:54 AM,64.9,55.9,73,29.64,-9999.0,North,-9999.0,-,N/A,,Unknown,0,2012-10-06 15:54:00
12:54 PM,57.9,55.0,90,29.67,-9999.0,North,-9999.0,-,0.04,,Unknown,0,2012-10-06 16:54:00
1:54 PM,53.1,50.0,89,29.71,-9999.0,North,-9999.0,-,0.13,,Unknown,0,2012-10-06 17:54:00
2:54 PM,51.1,48.9,92,29.74,-9999.0,North,-9999.0,-,0.01,,Unknown,0,2012-10-06 18:54:00
3:54 PM,51.1,50.0,96,29.75,-9999.0,North,-9999.0,-,0.05,,Unknown,0,2012-10-06 19:54:00
4:54 PM,52.0,50.0,93,29.77,-9999.0,North,-9999.0,-,N/A,,Unknown,0,2012-10-06 20:54:00
5:54 PM,52.0,50.0,93,29.79,-9999.0,North,-9999.0,-,N/A,,Unknown,0,2012-10-06 21:54:00
6:54 PM,50.0,48.9,96,29.80,-9999.0,North,-9999.0,-,N/A,,Unknown,0,2012-10-06 22:54:00
7:54 PM,48.9,48.0,97,29.81,-9999.0,North,-9999.0,-,N/A,,Unknown,0,2012-10-06 23:54:00
8:54 PM,46.9,46.0,97,29.83,-9999.0,North,-9999.0,-,N/A,,Unknown,0,2012-10-07 00:54:00
9:54 PM,45.0,44.1,97,29.85,-9999.0,North,-9999.0,-,N/A,,Unknown,0,2012-10-07 01:54:00
10:54 PM,44.1,43.0,96,29.88,-9999.0,North,-9999.0,-,N/A,,Unknown,0,2012-10-07 02:54:00
11:54 PM,43.0,42.1,97,29.90,-9999.0,North,-9999.0,-,N/A,,Unknown,0,2012-10-07 03:54:00